Simultaneous Nadir Overpasses (SNOs) Predictions

Prediction of SNOs between GOES-17 and NOAA-19 Satellite Orbit:

Table of predicted SNOs for the next 14.0 days since TLE Epoch: 6/29/2020
Index Date Time (GOES-17) GOES-17 Lat,Lon NOAA-19 Lat,Lon Distance(km) Time Diff (sec)
1 06/30/2020 03:06:36 -0.03,-137.19 -0.20,-137.80 69.99 80
2 07/01/2020 02:54:56 -0.03,-137.20 0.51,-134.96 256.17 80
3 07/03/2020 15:15:48 0.02,-137.20 0.66,-139.88 306.93 80
4 07/04/2020 15:04:07 0.01,-137.20 -0.03,-137.04 18.36 80
5 07/05/2020 14:52:26 0.01,-137.19 -0.66,-134.18 343.50 80
6 07/08/2020 03:16:12 -0.00,-137.17 -0.48,-139.17 228.29 80
7 07/09/2020 03:01:50 0.00,-137.16 0.17,-136.31 96.99 80
8 07/10/2020 02:50:10 0.00,-137.16 0.89,-133.47 422.15 80
9 07/11/2020 15:25:24 0.00,-137.15 0.98,-141.25 468.44 80
10 07/12/2020 15:11:04 0.00,-137.14 0.28,-138.40 143.59 80
